QPF
0.00 0.00 0.00 0.00 0.00 0.00 0.00 0.00 0.00 0.01 0.01 0.01 0.00 0.00 0.00 0.00 0.00 0.00 0.00 0.00 0.00 0.00 0.00 0.00 0.00 0.00 0.00 0.00 0.00 0.00 0.00 0.00 0.00 0.00 0.00 0.00 0.00 0.00 0.00 0.00 0.00 0.00 0.00 0.00 0.00
0.00 0.00 0.00 0.00 0.00 0.00 0.00 0.00 0.00 0.00 0.00 0.01 0.01 0.01 0.00 0.00 0.00 0.00 0.00 0.00 0.00 0.00 0.00 0.00 0.00 0.00 0.00 0.00 0.00 0.00 0.00 0.00 0.00 0.00 0.00 0.00 0.00 0.00 0.00 0.00 0.00 0.00 0.00 0.00 0.00
0.00 0.00 0.00 0.00 0.00 0.00 0.00 0.00 0.00 0.00 0.00 0.00 0.01 0.02 0.01 0.00 0.00 0.00 0.00 0.00 0.00 0.00 0.00 0.00 0.00 0.00 0.00 0.00 0.00 0.00 0.00 0.00 0.00 0.00 0.00 0.00 0.00 0.00 0.00 0.00 0.00 0.00 0.00 0.00 0.00
0.00 0.00 0.00 0.00 0.00 0.00 0.00 0.00 0.00 0.00 0.00 0.00 0.00 0.01 0.03 0.01 0.00 0.00 0.00 0.00 0.00 0.00 0.00 0.00 0.00 0.00 0.00 0.00 0.00 0.00 0.00 0.00 0.00 0.00 0.00 0.00 0.00 0.00 0.00 0.00 0.00 0.00 0.00 0.00 0.00
0.00 0.00 0.00 0.00 0.00 0.00 0.00 0.00 0.00 0.00 0.00 0.00 0.00 0.00 0.03 0.02 0.00 0.00 0.00 0.00 0.00 0.00 0.00 0.00 0.00 0.00 0.00 0.00 0.00 0.00 0.00 0.00 0.00 0.00 0.00 0.00 0.00 0.00 0.00 0.00 0.00 0.00 0.00 0.00 0.00
0.00 0.00 0.00 0.00 0.00 0.00 0.00 0.00 0.00 0.00 0.00 0.00 0.00 0.00 0.02 0.01 0.00 0.00 0.00 0.00 0.00 0.00 0.00 0.00 0.00 0.00 0.00 0.00 0.00 0.00 0.00 0.00 0.00 0.00 0.00 0.00 0.00 0.00 0.00 0.00 0.00 0.00 0.00 0.00 0.00
0.00 0.00 0.00 0.00 0.00 0.01 0.00 0.00 0.00 0.00 0.00 0.00 0.00 0.01 0.01 0.00 0.00 0.00 0.00 0.00 0.00 0.00 0.00 0.00 0.00 0.00 0.00 0.00 0.00 0.00 0.00 0.00 0.00 0.00 0.00 0.00 0.00 0.00 0.00 0.00 0.00 0.00 0.00 0.00 0.00
0.00 0.00 0.00 0.00 0.01 0.00 0.01 0.01 0.00 0.00 0.01 0.01 0.03 0.03 0.01 0.00 0.00 0.00 0.00 0.00 0.00 0.00 0.00 0.00 0.00 0.00 0.00 0.00 0.00 0.00 0.00 0.00 0.00 0.00 0.00 0.00 0.00 0.00 0.00 0.00 0.00 0.00 0.00 0.00 0.00
0.00 0.00 0.00 0.00 0.00 0.01 0.00 0.00 0.00 0.00 0.01 0.01 0.03 0.02 0.00 0.00 0.00 0.00 0.00 0.00 0.00 0.00 0.00 0.00 0.00 0.00 0.00 0.00 0.00 0.00 0.00 0.00 0.00 0.00 0.00 0.00 0.00 0.00 0.00 0.00 0.00 0.00 0.00 0.00 0.00
0.00 0.00 0.00 0.00 0.00 0.01 0.00 0.00 0.00 0.00 0.00 0.00 0.01 0.01 0.00 0.00 0.00 0.00 0.00 0.00 0.00 0.00 0.00 0.00 0.00 0.00 0.00 0.00 0.00 0.00 0.00 0.00 0.00 0.00 0.00 0.00 0.00 0.00 0.00 0.00 0.00 0.00 0.00 0.00 0.00
0.00 0.00 0.00 0.00 0.01 0.00 0.00 0.00 0.00 0.00 0.00 0.00 0.00 0.00 0.00 0.00 0.00 0.03 0.00 0.00 0.00 0.00 0.00 0.00 0.00 0.00 0.00 0.00 0.00 0.00 0.00 0.00 0.00 0.00 0.00 0.00 0.00 0.00 0.00 0.00 0.00 0.00 0.00 0.00 0.00
0.00 0.01 0.01 0.00 0.00 0.00 0.00 0.00 0.00 0.00 0.00 0.00 0.00 0.00 0.00 0.00 0.00 0.03 0.00 0.00 0.00 0.00 0.00 0.00 0.00 0.00 0.00 0.00 0.00 0.00 0.00 0.00 0.00 0.00 0.00 0.00 0.00 0.00 0.00 0.00 0.00 0.00 0.00 0.00 0.00
0.00 0.00 0.00 0.00 0.00 0.00 0.00 0.00 0.00 0.00 0.00 0.00 0.00 0.00 0.00 0.00 0.00 0.00 0.00 0.01 0.00 0.00 0.00 0.00 0.00 0.00 0.00 0.00 0.00 0.00 0.00 0.00 0.00 0.00 0.00 0.00 0.00 0.00 0.00 0.00 0.00 0.00 0.00 0.00 0.00
0.00 0.00 0.00 0.00 0.00 0.00 0.00 0.00 0.00 0.00 0.00 0.00 0.00 0.00 0.00 0.00 0.00 0.00 0.00 0.00 0.02 0.00 0.00 0.00 0.00 0.00 0.00 0.00 0.00 0.00 0.00 0.00 0.00 0.00 0.00 0.00 0.00 0.00 0.00 0.00 0.00 0.00 0.00 0.00 0.00
0.00 0.00 0.00 0.00 0.00 0.00 0.00 0.00 0.00 0.00 0.00 0.00 0.00 0.00 0.00 0.00 0.01 0.02 0.00 0.00 0.02 0.03 0.00 0.00 0.00 0.00 0.00 0.00 0.00 0.00 0.00 0.00 0.00 0.00 0.00 0.00 0.00 0.00 0.00 0.00 0.00 0.00 0.00 0.00 0.00
0.00 0.00 0.00 0.00 0.00 0.00 0.00 0.00 0.00 0.01 0.00 0.00 0.00 0.00 0.02 0.01 0.01 0.02 0.00 0.00 0.01 0.07 0.01 0.00 0.00 0.01 0.00 0.00 0.00 0.00 0.00 0.00 0.00 0.00 0.00 0.00 0.00 0.00 0.00 0.00 0.00 0.00 0.00 0.00 0.00
0.00 0.00 0.00 0.00 0.00 0.00 0.00 0.00 0.00 0.00 0.00 0.00 0.00 0.01 0.02 0.02 0.01 0.01 0.02 0.01 0.01 0.06 0.03 0.00 0.03 0.01 0.00 0.00 0.00 0.00 0.00 0.00 0.00 0.00 0.00 0.00 0.00 0.00 0.00 0.00 0.00 0.00 0.00 0.00 0.00
0.00 0.00 0.00 0.00 0.00 0.00 0.00 0.00 0.00 0.00 0.00 0.00 0.01 0.01 0.01 0.01 0.01 0.01 0.01 0.01 0.00 0.04 0.01 0.01 0.04 0.02 0.00 0.00 0.00 0.00 0.00 0.00 0.00 0.00 0.00 0.00 0.00 0.00 0.00 0.00 0.00 0.00 0.00 0.00 0.00
0.00 0.00 0.00 0.00 0.00 0.00 0.00 0.00 0.00 0.00 0.00 0.01 0.01 0.01 0.03 0.02 0.01 0.02 0.01 0.01 0.00 0.02 0.01 0.01 0.03 0.00 0.00 0.00 0.00 0.00 0.00 0.00 0.00 0.00 0.00 0.00 0.00 0.00 0.00 0.00 0.00 0.00 0.00 0.00 0.00
0.00 0.00 0.00 0.00 0.00 0.00 0.00 0.00 0.00 0.00 0.00 0.00 0.00 0.01 0.02 0.04 0.06 0.03 0.02 0.00 0.00 0.01 0.00 0.00 0.04 0.00 0.00 0.00 0.00 0.00 0.00 0.00 0.00 0.00 0.00 0.00 0.00 0.00 0.00 0.00 0.00 0.00 0.00 0.00 0.00
0.00 0.00 0.00 0.00 0.00 0.00 0.00 0.00 0.00 0.00 0.01 0.00 0.00 0.01 0.01 0.03 0.06 0.03 0.02 0.00 0.00 0.00 0.02 0.02 0.02 0.00 0.00 0.00 0.00 0.00 0.00 0.00 0.00 0.00 0.00 0.00 0.00 0.00 0.00 0.00 0.00 0.00 0.00 0.00 0.00
0.00 0.00 0.00 0.00 0.00 0.00 0.00 0.00 0.00 0.00 0.01 0.00 0.00 0.00 0.01 0.01 0.04 0.02 0.01 0.00 0.00 0.01 0.02 0.02 0.02 0.00 0.00 0.00 0.00 0.00 0.00 0.00 0.00 0.00 0.00 0.00 0.00 0.00 0.00 0.00 0.00 0.00 0.00 0.00 0.00
0.00 0.00 0.00 0.00 0.00 0.00 0.00 0.00 0.00 0.01 0.01 0.01 0.00 0.00 0.00 0.00 0.02 0.00 0.00 0.01 0.00 0.02 0.03 0.01 0.02 0.01 0.00 0.00 0.00 0.00 0.00 0.00 0.00 0.00 0.00 0.00 0.00 0.00 0.00 0.00 0.00 0.00 0.00 0.00 0.00
0.00 0.00 0.00 0.00 0.00 0.00 0.00 0.00 0.00 0.00 0.00 0.01 0.01 0.00 0.00 0.00 0.00 0.01 0.01 0.00 0.01 0.06 0.04 0.00 0.00 0.00 0.00 0.00 0.00 0.00 0.00 0.00 0.00 0.00 0.00 0.00 0.00 0.00 0.00 0.00 0.00 0.00 0.00 0.00 0.01
0.00 0.00 0.00 0.00 0.00 0.00 0.00 0.00 0.00 0.00 0.00 0.01 0.00 0.00 0.01 0.01 0.01 0.00 0.00 0.00 0.01 0.03 0.03 0.01 0.01 0.00 0.00 0.00 0.00 0.00 0.00 0.00 0.00 0.00 0.00 0.00 0.00 0.00 0.00 0.00 0.00 0.00 0.00 0.01 0.00
0.00 0.00 0.00 0.00 0.00 0.00 0.00 0.00 0.00 0.00 0.00 0.00 0.00 0.00 0.01 0.01 0.01 0.01 0.01 0.01 0.02 0.02 0.01 0.02 0.03 0.00 0.00 0.00 0.00 0.00 0.00 0.00 0.00 0.00 0.00 0.00 0.00 0.00 0.00 0.00 0.00 0.00 0.01 0.00 0.00
0.00 0.00 0.01 0.00 0.00 0.00 0.00 0.00 0.00 0.00 0.00 0.01 0.00 0.01 0.00 0.00 0.00 0.00 0.00 0.00 0.01 0.01 0.01 0.04 0.01 0.00 0.00 0.00 0.00 0.00 0.00 0.00 0.00 0.00 0.00 0.00 0.00 0.00 0.00 0.00 0.00 0.01 0.01 0.00 0.00
MSLP
1020.49 1020.09 1019.73 1019.40 1019.05 1018.74 1018.32 1018.01 1017.66 1017.24 1016.82 1016.55 1016.38 1016.14 1015.84 1015.46 1014.94 1014.05 1012.47 1011.75 1011.88 1012.35 1012.62 1011.35 1010.74 1009.82 1009.13 1007.69 1007.02 1006.82 1004.59 1002.29 1001.40 1001.27 1001.69 1001.77 1002.79 1002.65 1002.96 1003.01 1003.49 1004.33 1004.57 1005.52 1006.53
1020.29 1019.98 1019.65 1019.29 1018.90 1018.45 1018.10 1017.81 1017.49 1017.23 1016.91 1016.53 1016.19 1015.86 1015.57 1015.34 1014.16 1012.12 1011.16 1011.62 1012.07 1012.41 1012.10 1010.67 1009.53 1009.08 1008.10 1007.13 1006.68 1005.66 1003.91 1001.95 1002.09 1001.96 1002.19 1002.28 1002.77 1002.34 1003.27 1003.01 1003.39 1004.59 1005.67 1006.63 1006.86
1020.21 1019.73 1019.28 1018.91 1018.65 1018.30 1017.93 1017.55 1017.22 1017.06 1016.59 1016.39 1016.13 1015.84 1015.58 1015.03 1012.98 1010.07 1010.75 1010.56 1011.88 1012.09 1011.63 1010.75 1009.76 1008.55 1007.39 1006.46 1005.68 1005.01 1003.06 1003.08 1002.47 1003.13 1003.47 1002.75 1003.04 1003.04 1003.08 1002.83 1003.02 1003.70 1005.34 1006.44 1006.71
1019.96 1019.43 1019.00 1018.64 1018.30 1017.96 1017.41 1017.12 1016.78 1016.51 1016.26 1016.11 1015.94 1015.63 1015.41 1014.99 1011.68 1010.01 1011.05 1010.94 1011.67 1011.29 1010.74 1010.21 1009.48 1008.01 1006.68 1005.65 1005.34 1004.89 1004.40 1003.53 1003.65 1004.31 1004.01 1003.44 1003.38 1003.24 1003.32 1003.02 1003.62 1004.39 1005.04 1005.86 1006.17
1019.71 1019.21 1018.81 1018.35 1017.90 1017.54 1017.08 1016.66 1016.27 1016.00 1015.83 1015.76 1015.74 1015.49 1015.01 1013.95 1010.89 1010.01 1010.79 1010.37 1010.56 1009.98 1009.04 1009.21 1008.39 1007.27 1005.88 1005.40 1005.34 1004.86 1004.04 1004.45 1004.15 1004.41 1004.19 1004.00 1003.83 1003.57 1003.42 1003.75 1004.58 1004.90 1005.42 1005.74 1006.16
1019.39 1018.91 1018.47 1017.87 1017.36 1016.94 1016.41 1015.91 1015.80 1015.50 1015.41 1015.32 1015.30 1015.19 1014.65 1012.23 1010.49 1010.18 1010.08 1010.19 1010.51 1009.93 1009.35 1008.76 1007.72 1007.01 1005.82 1005.02 1004.66 1004.98 1004.39 1004.55 1004.53 1004.32 1004.17 1004.00 1003.92 1003.98 1003.86 1004.24 1004.66 1005.02 1005.22 1005.57 1005.97
1019.00 1018.48 1018.05 1017.38 1016.77 1016.28 1015.65 1015.17 1014.80 1014.71 1014.53 1014.51 1014.55 1014.56 1013.62 1010.68 1009.78 1009.83 1010.03 1010.05 1010.15 1009.84 1009.26 1009.09 1008.07 1007.01 1006.44 1005.19 1004.99 1004.90 1004.58 1004.57 1004.24 1004.14 1004.09 1004.50 1003.98 1003.58 1003.78 1004.45 1004.45 1004.92 1005.14 1005.61 1005.91
1018.67 1018.11 1017.66 1017.06 1016.35 1015.58 1015.09 1014.45 1013.88 1013.69 1013.43 1013.50 1013.64 1013.72 1011.81 1010.26 1009.88 1009.84 1009.95 1009.74 1009.98 1010.23 1010.36 1009.73 1008.78 1008.04 1005.98 1005.27 1004.75 1004.71 1004.63 1003.47 1003.55 1003.98 1004.18 1004.64 1002.76 1003.67 1003.73 1004.27 1004.15 1004.79 1005.02 1005.45 1005.86
1018.40 1017.73 1017.00 1016.33 1015.67 1014.85 1014.25 1013.63 1012.93 1012.48 1012.16 1012.43 1012.94 1012.81 1010.46 1009.30 1009.23 1008.82 1008.87 1008.71 1009.33 1009.93 1010.65 1010.35 1009.19 1007.77 1006.58 1004.94 1004.23 1003.63 1002.29 1002.42 1002.59 1003.56 1003.90 1004.26 1003.14 1002.67 1003.91 1003.96 1003.98 1004.48 1004.83 1005.08 1005.56
1017.89 1017.20 1016.50 1015.85 1015.05 1014.28 1013.46 1012.71 1011.91 1012.06 1011.43 1011.72 1012.10 1012.52 1009.77 1008.25 1007.95 1008.20 1008.19 1008.35 1008.66 1009.35 1010.46 1010.50 1008.72 1006.81 1005.40 1003.83 1000.54 1001.13 1001.82 1001.94 1001.74 1003.03 1003.63 1003.80 1003.06 1003.12 1003.63 1003.68 1003.78 1004.09 1004.39 1004.71 1004.98
1017.50 1016.69 1016.00 1015.23 1014.58 1013.99 1013.09 1011.02 1010.97 1010.51 1010.86 1009.45 1009.27 1008.56 1007.72 1007.60 1007.80 1007.63 1008.27 1008.23 1008.58 1008.57 1008.71 1009.28 1007.50 1004.11 1002.86 1002.84 1002.05 1001.40 1001.89 1001.23 1001.93 1002.83 1003.48 1003.26 1003.34 1003.25 1003.55 1003.68 1003.61 1003.77 1004.05 1004.28 1004.44
1016.98 1016.24 1015.47 1014.63 1013.99 1013.56 1012.76 1011.21 1011.14 1011.76 1010.25 1008.83 1008.42 1008.01 1007.98 1007.62 1007.48 1007.98 1008.45 1008.13 1007.86 1006.93 1007.55 1008.43 1005.85 1004.63 1003.99 1003.42 1002.55 1001.83 1001.45 1001.46 1002.40 1003.08 1003.27 1003.18 1003.12 1003.27 1003.42 1003.26 1003.17 1003.39 1003.74 1004.08 1004.30
1016.34 1015.60 1014.82 1014.10 1013.21 1012.67 1011.74 1011.51 1011.38 1011.88 1010.60 1007.55 1007.18 1007.10 1007.32 1007.78 1007.28 1007.57 1007.65 1007.94 1007.53 1006.35 1006.19 1005.79 1005.59 1004.54 1003.75 1003.27 1002.79 1002.22 1001.53 1001.33 1001.77 1002.81 1002.71 1002.72 1003.12 1002.95 1003.05 1003.28 1003.17 1003.24 1003.58 1004.03 1004.12
1015.77 1014.93 1014.10 1013.43 1013.06 1011.29 1011.16 1011.56 1011.97 1011.89 1010.10 1006.89 1006.53 1006.08 1006.51 1007.02 1006.61 1006.26 1006.70 1007.06 1007.23 1005.27 1004.99 1005.18 1004.72 1004.37 1003.81 1003.27 1002.70 1001.70 1001.41 1001.41 1001.55 1001.90 1001.22 1002.20 1001.15 1002.05 1002.28 1002.85 1003.26 1003.49 1003.48 1003.42 1003.55
1015.12 1014.21 1013.50 1013.11 1011.94 1011.13 1012.05 1012.25 1012.14 1011.65 1008.64 1006.66 1006.35 1006.17 1006.46 1006.35 1005.79 1005.05 1005.89 1006.66 1005.44 1004.85 1004.47 1004.55 1004.63 1004.12 1003.63 1003.01 1002.64 1001.77 1001.56 1001.46 1001.49 1001.27 1000.85 1001.75 1000.44 999.79 1001.48 1001.64 1002.13 1002.81 1002.99 1003.18 1003.27
1014.60 1013.64 1012.81 1012.14 1011.96 1011.31 1012.35 1012.51 1012.41 1011.20 1008.18 1006.24 1006.15 1006.20 1006.43 1006.34 1006.35 1006.14 1005.93 1006.17 1005.02 1005.02 1004.31 1003.43 1003.82 1004.74 1003.27 1003.22 1002.85 1002.26 1002.11 1001.87 1001.53 1001.02 1000.77 1000.10 999.73 999.37 1000.11 1000.42 1001.08 1001.69 1002.18 1002.51 1002.77
1014.14 1013.30 1012.46 1011.61 1011.06 1011.81 1012.64 1012.65 1011.89 1009.81 1008.84 1006.76 1006.57 1006.79 1006.47 1006.57 1006.69 1006.66 1005.82 1005.53 1004.33 1004.43 1003.79 1003.29 1003.38 1004.05 1003.07 1002.56 1002.91 1002.28 1001.28 1000.72 1000.87 1000.29 998.97 999.63 1000.02 998.36 999.40 999.94 1000.24 1000.88 1001.46 1001.94 1002.32
1013.76 1013.11 1012.39 1011.73 1011.31 1011.92 1012.52 1012.31 1010.49 1009.06 1008.15 1006.82 1006.91 1006.62 1006.34 1006.07 1006.02 1006.20 1006.29 1005.06 1003.76 1003.21 1002.39 1001.88 1002.91 1002.48 1002.58 1001.69 1000.43 1000.47 999.71 998.54 998.10 998.17 998.89 1000.10 999.17 998.73 1000.00 1000.29 1000.75 1001.08 1001.47 1001.79 1002.11
1013.01 1011.80 1011.13 1011.39 1011.28 1011.81 1012.21 1011.25 1010.03 1009.53 1008.90 1008.22 1006.98 1006.31 1005.51 1005.56 1005.52 1005.68 1005.59 1004.66 1003.17 1003.15 1002.23 1001.14 1001.60 1002.28 1001.88 1001.58 1001.32 1000.96 999.87 998.81 997.81 998.00 999.18 999.78 999.45 1000.19 1000.35 1000.71 1001.07 1001.46 1002.05 1002.41 1002.68
1012.82 1011.34 1010.72 1011.02 1011.23 1011.53 1011.60 1010.66 1009.75 1009.55 1009.12 1008.80 1007.66 1006.61 1005.49 1004.51 1004.01 1004.36 1004.50 1003.82 1002.66 1002.48 1002.20 1000.81 1001.19 1001.47 1001.43 1001.44 1001.24 1000.07 999.79 999.61 998.43 998.15 998.10 999.13 999.36 999.14 1000.32 1000.58 1001.22 1001.99 1002.63 1003.18 1003.70
1012.37 1010.40 1010.72 1010.73 1010.94 1010.96 1010.85 1010.36 1009.40 1008.54 1008.20 1008.81 1007.80 1006.75 1005.45 1004.46 1003.00 1002.34 1001.96 1001.90 1001.87 1001.94 1002.60 1002.49 1002.04 1001.12 1000.95 1000.22 999.55 1000.07 999.91 999.84 998.54 998.55 997.93 998.50 998.96 999.42 1000.24 1001.35 1002.36 1003.30 1004.23 1005.31 1006.60
1012.16 1009.91 1010.89 1010.04 1010.34 1011.02 1010.71 1010.28 1009.20 1008.22 1007.96 1008.19 1008.20 1006.91 1005.66 1004.66 1003.01 1002.23 1001.45 1001.01 1001.43 1002.08 1002.29 1003.62 1001.60 1000.17 998.99 999.82 999.77 999.68 999.65 999.42 998.64 999.01 998.29 998.82 1000.04 1001.34 1001.83 1002.37 1003.39 1005.57 1006.43 1007.13 1007.50
1012.71 1011.33 1010.90 1010.57 1011.01 1011.34 1010.99 1010.00 1009.21 1008.53 1007.87 1007.48 1007.33 1006.66 1005.62 1004.54 1003.53 1002.71 1002.21 1001.98 1001.79 1002.00 1002.55 1002.03 1000.72 999.45 999.82 999.94 999.82 999.28 999.40 999.46 998.86 998.94 998.85 998.93 1000.54 1001.83 1002.46 1003.41 1005.62 1006.80 1007.44 1007.40 1007.24
1013.21 1011.68 1010.93 1010.97 1011.91 1012.19 1011.18 1010.09 1009.26 1008.62 1007.90 1007.40 1006.66 1006.01 1005.06 1004.39 1003.76 1003.47 1002.91 1001.88 1002.10 1002.64 1002.78 1002.11 999.58 998.26 997.04 996.18 997.39 998.41 998.99 999.47 999.01 998.34 998.21 998.58 1000.44 1002.02 1002.94 1005.06 1006.83 1007.82 1008.02 1007.69 1007.84
1014.33 1014.00 1014.82 1013.13 1012.18 1012.02 1011.35 1010.57 1009.55 1008.76 1008.26 1007.57 1006.63 1005.96 1004.64 1003.55 1004.11 1003.34 1002.35 1002.81 1003.27 1002.85 1001.70 1000.66 998.97 997.95 996.85 997.49 998.63 998.86 999.06 999.25 998.74 998.36 998.26 999.44 1000.26 1002.01 1003.77 1005.92 1007.40 1008.27 1008.53 1008.37 1008.54
1016.05 1016.42 1015.79 1015.11 1013.11 1012.04 1011.29 1010.68 1009.84 1008.97 1008.67 1007.70 1007.11 1005.99 1004.99 1004.47 1004.06 1002.78 1002.74 1002.99 1002.78 1002.08 1001.02 1000.28 999.43 998.14 997.56 997.94 998.48 998.87 999.31 999.27 999.03 998.86 998.80 999.46 1000.91 1002.89 1004.87 1006.72 1008.02 1008.71 1008.46 1008.64 1009.28
1018.05 1017.57 1017.08 1014.72 1012.77 1012.05 1011.63 1010.92 1009.86 1009.19 1008.49 1008.12 1007.08 1005.81 1005.28 1005.39 1004.68 1003.92 1003.45 1003.40 1003.07 1002.90 1001.41 1000.01 998.93 998.16 997.75 997.97 998.26 998.98 998.74 998.88 999.03 999.12 999.12 999.37 1000.67 1003.31 1005.62 1007.32 1008.29 1008.69 1008.71 1009.25 1010.26
Thickness
5631 5630 5629 5627 5625 5622 5621 5618 5617 5616 5615 5613 5613 5614 5617 5623 5629 5640 5653 5660 5661 5664 5666 5680 5687 5697 5705 5714 5725 5728 5722 5734 5754 5761 5767 5786 5772 5794 5800 5799 5806 5810 5816 5821 5822
5627 5624 5621 5617 5615 5614 5611 5606 5603 5600 5598 5598 5598 5599 5601 5605 5618 5637 5648 5646 5645 5648 5655 5670 5679 5688 5694 5704 5711 5714 5719 5743 5760 5764 5761 5769 5773 5783 5779 5787 5794 5796 5805 5809 5814
5619 5616 5612 5608 5602 5598 5594 5590 5584 5579 5578 5576 5577 5579 5582 5587 5606 5633 5633 5638 5632 5634 5644 5655 5667 5678 5684 5700 5708 5715 5724 5739 5749 5750 5755 5760 5763 5773 5774 5772 5792 5794 5793 5799 5806
5611 5607 5602 5596 5589 5581 5575 5566 5558 5550 5547 5546 5546 5551 5556 5566 5595 5611 5608 5616 5616 5624 5634 5642 5652 5663 5676 5685 5702 5697 5715 5728 5731 5734 5741 5744 5758 5759 5765 5777 5787 5792 5798 5798 5801
5602 5597 5589 5581 5572 5560 5549 5533 5522 5516 5512 5510 5509 5516 5527 5543 5576 5581 5584 5598 5606 5617 5631 5633 5644 5658 5667 5681 5688 5691 5709 5713 5722 5728 5734 5741 5740 5748 5755 5769 5779 5784 5786 5789 5793
5592 5584 5574 5565 5552 5537 5519 5511 5502 5499 5494 5491 5487 5490 5499 5523 5543 5553 5564 5575 5584 5598 5609 5622 5636 5652 5661 5673 5679 5687 5698 5702 5711 5719 5726 5727 5733 5738 5749 5760 5764 5771 5776 5783 5788
5582 5572 5560 5550 5534 5517 5510 5507 5503 5497 5492 5486 5483 5480 5486 5518 5520 5526 5539 5550 5564 5579 5593 5605 5623 5637 5648 5657 5674 5677 5676 5688 5700 5710 5712 5720 5715 5727 5746 5751 5754 5760 5769 5773 5779
5571 5560 5547 5533 5516 5512 5509 5507 5505 5498 5493 5484 5476 5471 5483 5500 5500 5507 5513 5533 5544 5557 5566 5584 5602 5613 5639 5656 5661 5659 5667 5674 5696 5701 5706 5707 5715 5725 5739 5741 5746 5750 5760 5765 5771
5560 5548 5537 5521 5516 5515 5512 5510 5508 5503 5497 5486 5474 5463 5477 5489 5491 5500 5506 5517 5527 5538 5545 5561 5583 5601 5617 5632 5640 5654 5666 5675 5688 5698 5697 5698 5703 5730 5731 5734 5738 5745 5751 5759 5764
5551 5540 5525 5517 5516 5515 5515 5512 5511 5502 5496 5486 5474 5455 5471 5479 5486 5491 5498 5506 5513 5521 5524 5539 5568 5591 5610 5627 5657 5658 5660 5672 5682 5688 5689 5687 5703 5715 5725 5728 5733 5740 5747 5753 5759
5542 5532 5519 5516 5514 5512 5513 5522 5519 5513 5492 5505 5498 5492 5487 5479 5475 5480 5482 5492 5498 5510 5520 5531 5557 5598 5626 5638 5654 5662 5657 5670 5677 5683 5678 5685 5692 5705 5715 5719 5724 5733 5740 5748 5756
5537 5526 5517 5516 5514 5510 5510 5514 5504 5488 5486 5498 5495 5489 5481 5477 5470 5469 5474 5480 5491 5515 5523 5514 5555 5593 5609 5620 5633 5640 5645 5655 5668 5674 5677 5680 5686 5700 5707 5714 5724 5730 5734 5741 5750
5536 5526 5518 5516 5517 5513 5513 5504 5494 5478 5477 5503 5499 5492 5483 5474 5472 5468 5475 5472 5485 5506 5518 5538 5557 5584 5595 5604 5616 5627 5639 5650 5657 5662 5677 5676 5672 5688 5704 5711 5719 5728 5733 5737 5742
5534 5525 5519 5516 5516 5522 5514 5500 5484 5473 5477 5510 5499 5495 5488 5480 5476 5484 5483 5482 5480 5511 5529 5539 5556 5564 5579 5591 5614 5617 5647 5651 5659 5656 5660 5678 5672 5682 5699 5699 5705 5714 5725 5735 5743
5533 5524 5519 5513 5519 5519 5503 5491 5480 5473 5516 5506 5496 5492 5486 5485 5489 5494 5490 5483 5496 5506 5516 5519 5536 5554 5571 5594 5611 5617 5640 5648 5656 5661 5670 5663 5681 5699 5698 5696 5705 5712 5722 5731 5740
5532 5523 5520 5519 5512 5512 5495 5486 5477 5482 5506 5507 5499 5491 5485 5484 5482 5484 5486 5489 5503 5500 5518 5539 5554 5548 5576 5588 5604 5616 5623 5636 5650 5659 5642 5672 5685 5686 5693 5705 5713 5720 5724 5732 5738
5531 5523 5520 5517 5517 5504 5491 5482 5501 5508 5492 5503 5492 5480 5486 5471 5470 5473 5485 5486 5501 5494 5504 5528 5540 5549 5568 5576 5590 5603 5619 5616 5621 5634 5657 5679 5670 5699 5707 5715 5721 5722 5726 5730 5736
5529 5521 5517 5513 5511 5501 5488 5486 5518 5512 5505 5509 5491 5487 5474 5475 5467 5473 5465 5487 5511 5517 5528 5533 5521 5553 5564 5585 5606 5618 5636 5640 5626 5644 5652 5662 5663 5687 5704 5713 5718 5722 5724 5730 5732
5533 5529 5523 5515 5509 5500 5491 5512 5519 5494 5488 5483 5492 5486 5498 5484 5479 5469 5472 5489 5516 5518 5525 5543 5547 5562 5582 5594 5604 5604 5617 5660 5667 5679 5645 5654 5677 5682 5696 5699 5707 5712 5713 5716 5722
5535 5529 5525 5516 5509 5501 5498 5509 5499 5480 5479 5475 5489 5492 5497 5504 5505 5492 5479 5497 5517 5528 5535 5567 5554 5568 5578 5593 5601 5621 5638 5624 5651 5633 5642 5652 5661 5676 5681 5693 5701 5701 5704 5708 5713
5537 5537 5522 5517 5512 5509 5508 5506 5504 5512 5502 5481 5495 5496 5504 5503 5520 5520 5520 5521 5530 5531 5535 5537 5548 5564 5578 5582 5601 5605 5613 5625 5655 5654 5648 5643 5668 5689 5688 5688 5687 5691 5692 5686 5676
5539 5542 5521 5524 5515 5505 5503 5503 5513 5516 5512 5488 5478 5494 5502 5506 5523 5524 5530 5539 5540 5534 5532 5523 5562 5571 5597 5609 5620 5624 5624 5636 5637 5632 5661 5663 5653 5674 5678 5683 5684 5665 5664 5663 5668
5533 5527 5522 5520 5501 5498 5506 5512 5515 5509 5509 5507 5495 5500 5511 5517 5522 5529 5530 5537 5542 5544 5539 5553 5564 5570 5575 5593 5607 5615 5628 5637 5650 5655 5648 5648 5647 5670 5674 5676 5660 5652 5654 5662 5670
5529 5526 5523 5520 5507 5493 5499 5513 5510 5512 5512 5511 5515 5516 5522 5525 5529 5520 5525 5543 5545 5538 5533 5554 5591 5601 5604 5628 5632 5616 5625 5633 5645 5648 5659 5665 5652 5656 5664 5651 5643 5642 5648 5658 5660
5521 5510 5487 5498 5508 5503 5510 5511 5507 5506 5508 5511 5515 5518 5534 5523 5507 5530 5548 5541 5539 5546 5560 5574 5591 5613 5627 5627 5617 5617 5621 5628 5639 5656 5656 5657 5658 5657 5656 5641 5637 5637 5641 5648 5649
5509 5485 5481 5475 5505 5509 5512 5507 5507 5510 5505 5511 5510 5524 5536 5535 5536 5554 5553 5549 5548 5563 5572 5584 5585 5606 5609 5620 5620 5614 5619 5628 5638 5652 5658 5662 5650 5657 5648 5637 5632 5631 5641 5644 5642
5492 5482 5469 5497 5515 5511 5506 5507 5513 5515 5512 5510 5517 5538 5540 5532 5535 5544 5550 5550 5554 5553 5568 5585 5597 5604 5602 5621 5624 5613 5628 5636 5644 5653 5659 5654 5663 5652 5637 5629 5630 5632 5640 5639 5633